International Skating Union - Official Site

Essent ISU World Cup Erfurt
March 1-3, 2013

Draw | Lap Times | Index | World Cup

Referee: Karl  SKOOG  (SWE)
Starter: Ole Herman  SÖRLI  (NOR)
StartTime: EndTime: Air Temp: Ice Temp: Humidity:
18:00 18:50 13.8℃ -6.2℃ 31%
Result 5000m Ladies Division A
Rankings as of Mar 3 2013 1:29PM
Rank: No.: Name: Nation: Time: Behind: Points:
1 21 Martina  Sábliková CZE CZE 7:01.33200m - 21.18 - (21.1)
600m - 54.15 - (32.9)
1000m - 1:27.31 - (33.1)
1400m - 2:00.74 - (33.4)
1800m - 2:34.03 - (33.2)
2200m - 3:07.37 - (33.3)
2600m - 3:40.83 - (33.4)
3000m - 4:14.46 - (33.6)
3400m - 4:47.79 - (33.3)
3800m - 5:21.09 - (33.3)
4200m - 5:54.37 - (33.2)
4600m - 6:27.83 - (33.4)
5000m - 7:01.33 - (33.5)
100
2 23 Stephanie  Beckert GER GER 7:02.84200m - 21.22 - (21.2)
600m - 53.95 - (32.7)
1000m - 1:27.06 - (33.1)
1400m - 2:00.29 - (33.2)
1800m - 2:33.79 - (33.5)
2200m - 3:07.30 - (33.5)
2600m - 3:41.09 - (33.7)
3000m - 4:14.97 - (33.8)
3400m - 4:48.83 - (33.8)
3800m - 5:22.53 - (33.7)
4200m - 5:56.36 - (33.8)
4600m - 6:29.84 - (33.4)
5000m - 7:02.84 - (33.0)
1.51 80
3 31 Claudia  Pechstein GER GER 7:06.96200m - 20.64 - (20.6)
600m - 53.58 - (32.9)
1000m - 1:27.50 - (33.9)
1400m - 2:01.52 - (34.0)
1800m - 2:35.18 - (33.6)
2200m - 3:08.95 - (33.7)
2600m - 3:42.60 - (33.6)
3000m - 4:16.40 - (33.8)
3400m - 4:50.27 - (33.8)
3800m - 5:24.51 - (34.2)
4200m - 5:58.93 - (34.4)
4600m - 6:33.39 - (34.4)
5000m - 7:06.96 - (33.5)
5.63 70
4 41 Masako  Hozumi JPN JPN 7:07.69200m - 20.95 - (20.9)
600m - 53.21 - (32.2)
1000m - 1:26.38 - (33.1)
1400m - 2:00.33 - (33.9)
1800m - 2:34.32 - (33.9)
2200m - 3:08.08 - (33.7)
2600m - 3:41.85 - (33.7)
3000m - 4:15.74 - (33.8)
3400m - 4:49.75 - (34.0)
3800m - 5:23.96 - (34.2)
4200m - 5:58.37 - (34.4)
4600m - 6:32.76 - (34.3)
5000m - 7:07.69 - (34.9)
6.36 60
5 62 Diane  Valkenburg NED NED 7:08.37200m - 20.84 - (20.8)
600m - 53.83 - (32.9)
1000m - 1:28.00 - (34.1)
1400m - 2:02.19 - (34.1)
1800m - 2:36.35 - (34.1)
2200m - 3:09.62 - (33.2)
2600m - 3:42.99 - (33.3)
3000m - 4:16.39 - (33.4)
3400m - 4:50.10 - (33.7)
3800m - 5:24.01 - (33.9)
4200m - 5:58.08 - (34.0)
4600m - 6:32.66 - (34.5)
5000m - 7:08.37 - (35.7)
7.04 50
6 55 Linda  de Vries NED NED 7:09.64200m - 20.12 - (20.1)
600m - 52.53 - (32.4)
1000m - 1:25.53 - (33.0)
1400m - 1:58.60 - (33.0)
1800m - 2:31.73 - (33.1)
2200m - 3:04.98 - (33.2)
2600m - 3:38.67 - (33.6)
3000m - 4:12.98 - (34.3)
3400m - 4:47.63 - (34.6)
3800m - 5:22.75 - (35.1)
4200m - 5:58.04 - (35.2)
4600m - 6:33.10 - (35.0)
5000m - 7:09.64 - (36.5)
8.31 45
7 77 Olga  Graf RUS RUS 7:11.12200m - 21.66 - (21.6)
600m - 55.40 - (33.7)
1000m - 1:30.09 - (34.6)
1400m - 2:04.33 - (34.2)
1800m - 2:38.12 - (33.7)
2200m - 3:12.01 - (33.8)
2600m - 3:46.17 - (34.1)
3000m - 4:20.32 - (34.1)
3400m - 4:54.03 - (33.7)
3800m - 5:28.12 - (34.0)
4200m - 6:02.08 - (33.9)
4600m - 6:36.38 - (34.3)
5000m - 7:11.12 - (34.7)
9.79 40
8 56 Marije  Joling NED NED 7:13.36200m - 20.60 - (20.6)
600m - 54.49 - (33.8)
1000m - 1:28.48 - (33.9)
1400m - 2:02.35 - (33.8)
1800m - 2:36.27 - (33.9)
2200m - 3:10.20 - (33.9)
2600m - 3:44.04 - (33.8)
3000m - 4:18.17 - (34.1)
3400m - 4:52.83 - (34.6)
3800m - 5:27.56 - (34.7)
4200m - 6:02.15 - (34.5)
4600m - 6:37.46 - (35.3)
5000m - 7:13.36 - (35.9)
12.03 35
9 75 Yevgeniya  Dmitriyeva RUS RUS 7:17.66200m - 20.77 - (20.7)
600m - 53.72 - (32.9)
1000m - 1:26.82 - (33.1)
1400m - 2:00.80 - (33.9)
1800m - 2:34.32 - (33.5)
2200m - 3:08.75 - (34.4)
2600m - 3:43.05 - (34.3)
3000m - 4:17.92 - (34.8)
3400m - 4:52.89 - (34.9)
3800m - 5:28.42 - (35.5)
4200m - 6:03.95 - (35.5)
4600m - 6:40.62 - (36.6)
5000m - 7:17.66 - (37.0)
16.33 30
10 64 Annouk  van der Weijden NED NED 7:18.23200m - 20.56 - (20.5)
600m - 53.75 - (33.1)
1000m - 1:27.45 - (33.7)
1400m - 2:01.12 - (33.6)
1800m - 2:35.28 - (34.1)
2200m - 3:09.42 - (34.1)
2600m - 3:43.93 - (34.5)
3000m - 4:18.54 - (34.6)
3400m - 4:53.58 - (35.0)
3800m - 5:29.08 - (35.5)
4200m - 6:04.83 - (35.7)
4600m - 6:41.64 - (36.8)
5000m - 7:18.23 - (36.5)
16.90 25
11 49 Bo-Reum  Kim KOR KOR 7:41.22200m - 21.51 - (21.5)
600m - 55.07 - (33.5)
1000m - 1:29.28 - (34.2)
1400m - 2:04.20 - (34.9)
1800m - 2:38.72 - (34.5)
2200m - 3:13.64 - (34.9)
2600m - 3:49.59 - (35.9)
3000m - 4:26.67 - (37.0)
3400m - 5:04.53 - (37.8)
3800m - 5:43.09 - (38.5)
4200m - 6:22.10 - (39.0)
4600m - 7:00.88 - (38.7)
5000m - 7:41.22 - (40.3)
39.89 21
12 70 Katarzyna  Bachleda-Curus POL POL DQ200m - 20.62 - (20.6)
600m - 52.76 - (32.1)
1000m - 1:26.08 - (33.3)
1400m - 1:59.86 - (33.7)
1800m - 2:33.74 - (33.8)
2200m - 3:07.71 - (33.9)
2600m - 3:42.12 - (34.4)
3000m - 4:16.84 - (34.7)
3400m - 4:51.79 - (34.9)
3800m - 5:26.73 - (34.9)
4200m - 6:02.03 - (35.3)
4600m - 6:37.57 - (35.5)
5000m - 7:13.13 - (35.5)
0